This is the latest recevied weather packets stored in our database for station/object ac2ev. If no packets are shown the sender has not sent any weather packets the latest 10 day(s).
| Time | Temp. | Humidity | Pressure | Rain* | Wind** | Luminosity | Snow |
|---|---|---|---|---|---|---|---|
| 1788356942 | 21.11° C | 89% | 1015 hPa | 0 mm | - | - | - |
| 1788356641 | 20.56° C | 89% | 1015 hPa | 0.51 mm | - | - | - |
| 1788356463 | 20.56° C | 90% | 1014.6 hPa | 1.02 mm | - | - | - |
| 1788356041 | 20.56° C | 90% | 1014.7 hPa | 1.52 mm | - | - | - |
| 1788355741 | 20.56° C | 90% | 1015.4 hPa | 2.79 mm | - | - | - |
| 1788355441 | 20.56° C | 90% | 1015.5 hPa | 4.83 mm | - | - | - |
| 1788355141 | 20.56° C | 90% | 1015.3 hPa | 5.59 mm | - | - | - |
| 1788354842 | 20.56° C | 90% | 1015.2 hPa | 5.84 mm | - | - | - |
| 1788354538 | 20.56° C | 90% | 1015.3 hPa | 5.84 mm | - | - | - |
| 1788354343 | 20.56° C | 90% | 1015.5 hPa | 5.84 mm | - | - | - |
| 1788354062 | 20.56° C | 90% | 1015.7 hPa | 5.84 mm | - | - | - |
| 1788353638 | 20.56° C | 90% | 1015.9 hPa | 5.84 mm | - | - | - |
| 1788353339 | 20.56° C | 90% | 1015.7 hPa | 5.84 mm | - | - | - |
| 1788353039 | 21.11° C | 90% | 1015.3 hPa | 5.33 mm | - | - | - |
| 1788352739 | 21.11° C | 90% | 1015.4 hPa | 4.83 mm | - | - | - |
| 1788352438 | 21.67° C | 90% | 1015.5 hPa | 4.32 mm | - | - | - |
| 1788352138 | 22.22° C | 90% | 1015.7 hPa | 3.05 mm | - | - | - |
| 1788351838 | 22.78° C | 90% | 1015.1 hPa | 1.02 mm | - | - | - |
| 1788351538 | 22.78° C | 90% | 1014.7 hPa | 0.25 mm | - | - | - |
| 1788351236 | 22.78° C | 90% | 1014.7 hPa | 0 mm | - | - | - |
| 1788350934 | 22.78° C | 90% | 1014.5 hPa | 0 mm | - | - | - |
| 1788350632 | 22.78° C | 90% | 1014 hPa | 0 mm | - | - | - |
| 1788350331 | 22.78° C | 90% | 1013.6 hPa | 0 mm | - | - | - |
| 1788350028 | 22.78° C | 90% | 1014.1 hPa | 0 mm | - | - | - |
| 1788349728 | 22.78° C | 90% | 1014.1 hPa | 0 mm | - | - | - |
* Rain latest hour (hover to see other rain measurements)
** Current wind speed in m/s (hover to see current wind gust speed)